Home > Weather > Hiroshima > Past weeks

Flag for Japan Past Weather in Hiroshima, Japan — Yesterday and Last 2 Weeks

Now
84 °F

Partly sunny.


Feels Like: 94 °F
Forecast: 73 / 91 °F
Wind: 8 mph from Southeast

Location: Iwakuni Marine Corps Air Station

Current Time: Jul 27, 2016 at 10:15:13 AM

Latest Report: Jul 27, 2016 at 9:55 AM


Visibility: N/A

Pressure: 29.80 "Hg

Humidity: 80%

Dew Point: 77 °F

Location of HiroshimaLocation

Past Weather in Hiroshima — Graph

°F

Hiroshima Temperature Yesterday

Maximum temperature yesterday: 87 °F (at 11:55 AM)
Minimum temperature yesterday: 79 °F (at 2:55 AM)
Average temperature yesterday: 82 °F

High & Low Weather Summary for the Past Weeks

 TemperatureHumidityPressure
High93 °F (Jul 14, 3:55 PM)97% (Jul 13, 3:55 AM)29.94 "Hg (Jul 13, 3:55 AM)
Low70 °F (Jul 16, 3:55 AM)57% (Jul 14, 5:55 PM)29.46 "Hg (Jul 14, 3:55 PM)
Average81 °F79%29.77 "Hg
* Reported Jul 12 8:55 AM — Jul 27 8:55 AM, Hiroshima, Weather by CustomWeather, © 2016

Note: Actual official high and low records may vary slightly from our data, if they occured in-between our weather recording intervals... More about our weather records

Advertising

Hiroshima Weather History for the Previous 24 Hours

Scroll right to see more
 ConditionsComfort  
Time TempWeatherWind HumidityBarometerVisibility
8:55 AM
Wed, Jul 27
82 °FBroken clouds.3 mph82%29.80 "HgN/A
7:55 AM79 °FBroken clouds.No wind84%29.81 "HgN/A
6:55 AM77 °FBroken clouds.5 mph88%29.81 "HgN/A
5:55 AM76 °FPartly sunny.5 mph91%29.80 "HgN/A
4:55 AM76 °FPartly cloudy.5 mph91%29.79 "HgN/A
3:55 AM77 °FPartly cloudy.5 mph88%29.78 "HgN/A
2:55 AM78 °FPassing clouds.5 mph84%29.79 "HgN/A
1:55 AM78 °FPassing clouds.6 mph84%29.79 "HgN/A
12:55 AM79 °FPartly cloudy.6 mph82%29.80 "HgN/A
11:55 PM
Tue, Jul 26
80 °FPassing clouds.6 mph79%29.80 "HgN/A
10:55 PM80 °FPassing clouds.5 mph79%29.80 "HgN/A
9:55 PM80 °FPartly cloudy.No wind79%29.81 "HgN/A
8:55 PM82 °FPartly cloudy.No wind74%29.80 "HgN/A
7:55 PM82 °FPassing clouds.No wind79%29.56 "HgN/A
6:55 PM82 °FPartly sunny.3 mph91%29.78 "HgN/A
5:55 PM83 °FPartly sunny.8 mph91%29.77 "HgN/A
4:55 PM86 °FPartly sunny.8 mph80%29.77 "HgN/A
3:55 PM87 °FPartly sunny.8 mph75%29.77 "HgN/A
2:55 PM86 °FPartly sunny.No wind72%29.77 "HgN/A
1:55 PM85 °FMore clouds than sun.13 mph77%29.78 "HgN/A
12:55 PM86 °FPartly sunny.16 mph75%29.79 "HgN/A
11:55 AM87 °FBroken clouds.15 mph72%29.81 "HgN/A
10:55 AM86 °FBroken clouds.13 mph72%29.83 "HgN/A
Weather by CustomWeather, © 2016

See weather overviewHow to use our weather pages